Vorticity
6 5 4 5 6 7 8 8 9 9 9 9 8 7 7 7 7 7 7 6 5 5 5 5 5 4 4 4 4 4 4 4 4 4 5 5 4 4 4 4 5 5 6 6 5 5 5 5 5 5 5 5 5 5 5 6 6 6 7 6 7 8 8
7 5 5 5 6 7 7 8 9 9 9 8 8 7 6 6 6 6 6 6 5 5 5 4 4 4 4 4 4 4 4 5 5 5 5 5 4 5 5 5 5 5 5 5 5 5 5 5 5 5 5 5 6 6 7 7 8 8 9 9 9 10 10
7 6 5 5 7 8 8 9 9 9 9 9 8 8 7 7 7 6 6 6 6 5 5 5 4 4 5 4 4 4 4 5 5 5 5 5 5 5 5 6 5 5 5 5 4 4 4 4 4 4 5 5 6 7 8 9 10 10 11 11 11 11 12
7 6 6 6 7 7 7 8 8 9 9 9 9 8 8 8 7 7 6 6 5 5 5 5 5 5 5 4 4 4 5 5 5 5 5 5 6 6 5 5 5 5 4 4 4 4 4 4 4 4 5 5 6 7 8 9 10 11 12 11 11 12 12
7 6 7 7 7 7 7 8 9 9 9 9 9 8 8 8 7 6 6 5 6 5 5 5 4 4 4 3 4 5 5 5 5 5 6 6 6 5 5 5 4 4 4 3 4 4 4 4 5 5 5 6 7 7 8 10 11 12 12 11 12 12 12
7 7 8 8 7 6 7 9 10 10 10 10 10 9 8 8 7 6 6 6 6 5 4 4 3 4 4 4 5 5 5 5 5 5 5 5 5 5 5 5 4 3 3 3 4 4 4 5 5 6 7 7 7 8 10 12 12 12 12 12 11 10 12
8 8 8 6 6 7 9 10 10 11 11 10 9 9 8 7 6 6 6 5 4 3 3 3 3 3 3 4 4 4 4 4 5 5 5 5 5 5 4 4 3 4 4 4 5 5 6 7 7 7 8 8 9 10 12 13 13 13 12 11 10 10 13
8 7 6 6 7 9 10 11 11 10 10 9 8 8 7 7 6 5 4 3 3 3 3 2 2 3 3 3 4 4 4 5 5 6 5 5 5 4 4 4 3 4 4 4 5 6 6 7 7 8 9 9 10 12 13 14 13 13 12 9 10 13 16
8 6 7 8 10 11 11 11 10 9 8 8 7 7 6 5 5 4 3 3 3 2 2 2 2 3 3 4 4 4 5 6 6 6 5 4 4 4 4 4 4 5 5 6 6 7 7 7 7 9 10 10 11 12 13 14 14 12 11 10 13 17 18
7 7 9 11 12 12 10 9 8 8 7 7 6 6 6 5 5 4 4 3 3 3 3 3 3 3 3 4 5 5 6 5 5 5 5 5 5 5 4 5 6 6 7 7 8 8 8 9 9 10 11 11 12 13 13 14 13 11 11 13 17 19 18
9 10 12 12 11 10 8 8 7 7 7 6 6 6 6 6 5 5 5 5 5 4 3 3 3 3 4 4 5 6 5 5 5 5 6 6 6 5 6 6 7 8 8 9 9 10 10 10 11 11 12 12 12 13 14 14 14 13 13 17 19 19 19
11 12 12 12 10 8 6 6 6 6 6 6 6 7 6 6 6 6 6 5 4 3 3 3 3 3 5 5 5 6 5 5 6 6 7 8 7 7 7 8 9 9 9 10 10 11 11 11 12 12 12 13 13 14 15 15 15 15 18 20 21 20 21
13 12 11 9 7 5 4 4 5 6 7 7 7 7 7 7 6 5 5 4 3 3 3 3 4 5 6 7 6 6 6 7 8 9 9 9 8 9 10 10 11 10 10 11 10 12 12 12 13 14 14 15 15 15 15 15 16 19 22 22 21 21 21
11 10 7 4 3 2 3 5 7 7 7 7 7 7 6 5 5 4 4 4 4 4 5 5 7 7 7 8 7 8 9 10 11 11 11 10 10 11 12 12 13 13 14 15 15 15 16 16 16 16 15 15 15 15 15 16 20 23 21 19 19 19 18
8 6 3 2 2 3 4 6 7 7 7 7 6 6 5 5 4 4 5 5 5 6 7 8 9 9 9 10 11 12 13 14 15 14 14 15 15 16 17 17 19 20 20 21 21 20 20 19 18 17 16 15 16 17 17 20 23 21 17 16 17 16 13
4 2 2 2 4 5 6 7 8 8 7 6 5 5 4 4 5 5 6 7 8 9 9 9 10 11 12 13 15 16 18 19 20 20 21 22 23 23 24 26 27 26 25 24 23 21 20 19 18 18 19 20 20 18 18 19 19 14 12 14 13 11 9
2 2 2 4 5 6 7 7 7 6 5 4 4 5 6 6 7 8 8 9 9 10 11 12 14 15 16 18 20 21 23 24 25 26 27 27 27 27 27 28 27 25 23 22 21 20 20 19 18 18 18 17 15 15 15 15 13 10 10 11 9 7 7
3 3 5 6 7 7 6 5 4 4 4 6 7 8 9 9 9 9 9 10 11 13 15 16 18 20 22 24 25 26 27 26 25 25 25 24 23 23 22 22 19 17 17 16 16 17 16 16 16 15 14 11 10 11 11 11 10 9 8 8 7 7 6
6 6 7 7 6 5 5 5 5 7 8 9 9 10 10 10 11 12 13 15 16 18 20 22 23 24 25 25 25 23 21 20 18 18 17 15 14 14 15 15 14 13 13 12 11 11 10 11 10 10 10 9 9 9 9 9 9 8 7 6 6 6 6
7 7 6 6 5 6 7 8 9 10 10 11 11 13 13 13 14 16 18 20 21 22 24 24 24 23 22 19 17 16 14 14 13 12 11 10 10 11 11 11 11 11 11 11 10 10 9 9 9 9 9 8 8 8 8 8 8 7 7 6 6 6 7
7 6 6 7 7 9 10 10 11 12 13 14 15 17 18 18 19 20 21 22 22 22 22 21 19 17 15 13 12 12 11 11 10 9 10 10 10 10 10 9 9 9 9 9 9 9 9 9 9 9 8 8 7 7 7 7 8 7 7 7 7 7 8
8 8 9 9 9 11 12 13 15 16 17 19 20 20 21 20 20 21 21 21 20 19 17 16 14 13 11 11 10 10 9 9 9 9 9 9 9 9 8 8 8 7 7 7 7 7 7 7 8 8 8 8 7 7 8 8 8 7 8 9 9 9 9
11 11 12 13 13 14 16 17 19 20 20 21 20 20 20 19 17 17 17 17 16 15 13 12 11 10 9 9 8 8 8 8 8 8 9 8 8 8 8 8 8 8 8 7 7 7 7 6 7 8 8 8 7 8 10 10 9 9 9 10 10 11 11
12 13 14 15 17 18 19 20 20 20 20 19 18 17 16 14 12 12 12 12 12 11 10 10 9 9 8 8 8 8 7 7 8 8 9 9 8 8 9 9 9 8 8 8 8 8 8 8 7 7 7 8 9 10 10 9 11 12 12 11 12 13 14
16 17 17 18 19 20 20 20 19 18 17 15 14 13 11 9 9 9 9 9 9 8 8 8 8 8 7 7 7 7 7 8 9 9 9 8 8 8 8 8 8 9 9 9 9 8 7 7 6 6 8 12 12 11 10 10 12 14 14 15 15 16 17
21 21 21 20 20 19 17 17 16 14 12 11 10 9 8 8 7 8 8 8 7 7 7 7 7 7 8 8 9 9 9 9 9 9 9 9 9 10 9 9 9 9 9 10 10 10 10 9 8 9 11 12 12 12 13 15 16 15 16 17 17 18 20
19 17 16 16 15 14 12 11 11 10 8 8 8 7 7 7 7 7 7 8 8 8 7 6 6 7 8 9 10 10 10 10 9 9 9 9 10 10 10 10 10 9 10 11 12 13 13 13 14 15 15 14 15 16 17 18 17 17 18 18 18 20 21
10 9 9 8 7 7 8 7 7 7 7 7 7 7 7 7 8 8 8 8 9 9 9 9 9 9 9 9 9 9 9 10 11 10 9 9 9 10 11 12 12 12 13 14 15 15 16 17 18 18 18 18 19 20 19 19 19 19 19 19 20 21 20
7 7 7 7 7 7 8 8 8 8 9 9 9 9 9 9 9 9 9 9 10 10 11 12 12 13 13 13 13 12 11 11 12 13 13 12 11 11 12 14 15 16 17 18 18 18 19 19 20 20 21 22 21 20 19 19 19 20 20 19 19 18 17
11 11 11 11 12 12 11 11 12 12 12 12 11 12 13 14 14 13 13 13 13 12 13 14 15 16 16 16 16 16 15 15 15 15 16 17 16 16 16 16 17 19 20 19 19 20 20 21 21 21 21 21 19 18 19 19 19 20 19 18 17 16 16
21 21 20 20 20 20 20 19 19 18 18 17 16 15 16 16 17 16 16 15 15 15 15 16 17 17 17 17 17 17 17 17 17 17 18 19 20 20 19 19 19 20 20 20 20 20 21 21 21 20 19 19 18 18 18 18 18 18 17 16 16 16 17
25 26 26 26 26 26 27 26 26 26 25 25 24 22 21 20 20 19 18 17 17 18 19 18 18 18 17 16 16 17 17 18 18 19 19 19 20 20 20 19 19 19 20 20 21 20 20 19 19 19 18 18 18 17 17 17 17 16 17 17 17 17 17
18 18 18 20 20 21 21 21 22 23 23 24 25 25 24 23 22 22 21 21 21 22 21 20 19 18 18 18 17 17 18 19 19 19 19 19 20 20 20 19 19 19 19 20 19 19 19 18 18 17 17 16 17 16 17 17 17 17 17 18 18 17 17
17 16 16 16 16 16 17 16 16 17 18 18 19 20 21 21 20 20 21 22 22 22 22 21 21 20 19 20 20 20 20 20 20 19 19 19 19 19 19 19 19 19 18 18 18 18 18 17 16 16 16 16 16 17 17 17 18 18 18 17 17 16 16
18 18 18 17 16 16 16 16 16 16 16 16 15 16 16 17 17 18 18 18 18 18 18 19 19 20 19 19 19 19 19 19 18 18 18 18 18 18 18 18 18 18 17 17 17 18 17 17 16 16 16 16 16 17 18 18 18 18 17 16 16 15 14
17 17 17 17 17 16 15 15 16 15 15 15 15 14 14 14 15 15 15 15 16 16 15 15 14 15 16 16 16 16 16 15 16 16 16 16 17 17 17 17 17 17 16 16 17 17 17 16 16 16 16 16 17 17 18 17 17 16 15 15 14 14 13
Height
5514 5513 5512 5511 5510 5508 5507 5506 5505 5504 5503 5502 5502 5501 5500 5500 5499 5498 5498 5497 5496 5495 5494 5494 5493 5491 5489 5486 5485 5484 5483 5482 5480 5479 5478 5476 5475 5474 5473 5471 5470 5470 5471 5468 5464 5463 5461 5458 5456 5454 5453 5451 5450 5449 5447 5446 5444 5443 5441 5439 5438 5436 5433
5504 5504 5503 5503 5502 5500 5498 5497 5496 5495 5494 5494 5493 5491 5491 5490 5489 5489 5488 5488 5487 5486 5485 5485 5484 5483 5481 5478 5476 5474 5473 5472 5470 5469 5468 5466 5465 5464 5462 5460 5459 5458 5459 5458 5455 5452 5451 5448 5445 5443 5441 5438 5437 5436 5434 5433 5431 5430 5429 5427 5425 5423 5421
5495 5495 5494 5494 5493 5491 5490 5489 5487 5486 5485 5485 5484 5482 5481 5480 5479 5479 5479 5478 5478 5477 5476 5475 5474 5473 5471 5469 5467 5465 5463 5462 5461 5459 5458 5456 5454 5453 5451 5449 5448 5447 5447 5447 5445 5442 5440 5438 5435 5433 5430 5428 5426 5424 5422 5420 5419 5417 5416 5414 5412 5410 5409
5486 5485 5485 5485 5484 5482 5481 5480 5478 5477 5476 5476 5475 5473 5472 5471 5470 5470 5469 5468 5468 5467 5466 5465 5464 5463 5461 5459 5457 5455 5453 5452 5451 5449 5448 5446 5444 5442 5441 5438 5437 5435 5434 5434 5434 5431 5428 5426 5424 5422 5420 5417 5415 5413 5410 5408 5407 5405 5403 5401 5399 5397 5396
5477 5476 5475 5475 5474 5472 5471 5470 5469 5468 5467 5466 5465 5464 5463 5462 5461 5460 5459 5458 5457 5456 5456 5455 5454 5453 5451 5449 5447 5445 5443 5441 5440 5438 5437 5435 5433 5431 5430 5428 5425 5424 5422 5421 5421 5420 5417 5414 5412 5410 5408 5406 5403 5402 5399 5397 5395 5393 5391 5388 5386 5385 5384
5468 5466 5466 5465 5464 5462 5461 5460 5459 5458 5457 5456 5455 5454 5453 5452 5451 5450 5449 5448 5447 5446 5445 5445 5444 5442 5440 5438 5436 5434 5432 5430 5428 5427 5425 5423 5422 5420 5418 5416 5414 5412 5411 5409 5409 5407 5405 5402 5400 5398 5396 5394 5391 5390 5389 5386 5384 5381 5378 5376 5375 5373 5371
5459 5457 5456 5455 5454 5453 5451 5449 5448 5448 5447 5446 5445 5444 5443 5442 5441 5440 5439 5438 5437 5436 5435 5435 5434 5432 5430 5428 5426 5423 5421 5419 5417 5415 5413 5411 5409 5407 5405 5404 5402 5400 5399 5397 5395 5394 5392 5390 5388 5386 5384 5382 5379 5378 5376 5373 5372 5371 5368 5364 5363 5361 5359
5449 5447 5446 5445 5444 5443 5441 5439 5438 5437 5436 5435 5434 5434 5433 5432 5431 5430 5429 5428 5427 5425 5424 5424 5423 5421 5419 5417 5414 5412 5409 5408 5406 5404 5401 5399 5396 5394 5392 5391 5389 5388 5386 5384 5382 5381 5379 5377 5376 5374 5372 5370 5367 5365 5364 5360 5358 5359 5357 5354 5352 5350 5347
5440 5438 5436 5435 5434 5432 5431 5429 5428 5427 5425 5424 5423 5423 5422 5421 5420 5419 5418 5417 5416 5414 5413 5413 5412 5410 5408 5405 5403 5400 5398 5397 5394 5392 5389 5386 5383 5381 5379 5378 5376 5374 5372 5370 5368 5368 5366 5364 5364 5362 5360 5358 5355 5353 5351 5349 5346 5346 5345 5342 5341 5339 5336
5430 5428 5426 5424 5424 5422 5421 5419 5418 5416 5415 5414 5413 5412 5411 5410 5409 5408 5407 5406 5405 5403 5402 5401 5400 5398 5396 5393 5391 5389 5387 5384 5382 5379 5376 5373 5370 5368 5366 5365 5363 5361 5359 5356 5355 5354 5352 5351 5352 5350 5347 5346 5343 5340 5339 5337 5335 5334 5333 5330 5329 5328 5325
5419 5417 5415 5414 5413 5412 5411 5409 5408 5406 5405 5403 5402 5401 5400 5399 5398 5397 5396 5395 5393 5392 5391 5389 5387 5385 5383 5381 5379 5377 5374 5371 5369 5366 5363 5360 5357 5355 5354 5352 5351 5349 5346 5344 5342 5341 5340 5339 5339 5337 5334 5333 5331 5329 5327 5325 5323 5322 5321 5319 5317 5317 5315
5408 5406 5405 5403 5403 5402 5401 5399 5397 5395 5394 5392 5391 5390 5388 5387 5386 5385 5384 5383 5382 5380 5379 5377 5375 5373 5371 5368 5366 5363 5361 5358 5356 5353 5350 5346 5343 5342 5341 5340 5338 5336 5334 5332 5330 5330 5328 5327 5325 5324 5322 5320 5319 5317 5315 5313 5312 5311 5310 5308 5306 5306 5305
5397 5395 5394 5392 5392 5391 5390 5388 5386 5384 5382 5381 5379 5378 5376 5375 5374 5374 5372 5371 5370 5368 5366 5365 5363 5360 5358 5355 5352 5350 5347 5345 5342 5339 5336 5332 5329 5329 5328 5326 5325 5323 5322 5321 5319 5318 5317 5315 5312 5311 5310 5308 5306 5305 5304 5302 5301 5300 5298 5298 5297 5295 5294
5385 5384 5383 5381 5380 5380 5379 5377 5374 5372 5370 5369 5367 5365 5364 5363 5362 5361 5360 5359 5357 5355 5353 5352 5350 5348 5345 5342 5339 5336 5334 5331 5328 5325 5321 5318 5316 5316 5315 5313 5312 5310 5309 5308 5307 5306 5306 5303 5300 5299 5299 5297 5295 5294 5293 5291 5290 5289 5288 5288 5287 5286 5285
5374 5373 5372 5370 5368 5367 5367 5364 5362 5360 5358 5356 5354 5352 5351 5352 5350 5348 5347 5346 5344 5342 5340 5339 5337 5335 5332 5329 5326 5323 5320 5317 5314 5310 5307 5305 5304 5303 5302 5302 5301 5299 5297 5296 5294 5293 5293 5292 5290 5288 5288 5286 5284 5284 5282 5281 5280 5280 5279 5278 5277 5277 5276
5363 5362 5360 5358 5356 5355 5354 5352 5349 5347 5345 5343 5341 5337 5337 5340 5339 5335 5333 5333 5331 5328 5326 5325 5323 5321 5318 5315 5313 5310 5306 5302 5299 5296 5293 5292 5291 5290 5290 5290 5289 5287 5285 5283 5282 5281 5280 5280 5279 5278 5277 5276 5274 5273 5272 5270 5271 5271 5269 5268 5268 5268 5267
5352 5350 5348 5347 5344 5342 5342 5340 5336 5334 5332 5329 5327 5323 5321 5325 5327 5323 5320 5319 5317 5315 5312 5310 5309 5306 5303 5301 5299 5296 5292 5289 5285 5283 5281 5279 5279 5278 5279 5279 5278 5275 5273 5271 5271 5270 5269 5268 5268 5267 5266 5265 5264 5263 5261 5261 5261 5261 5259 5258 5259 5259 5258
5340 5338 5336 5334 5332 5330 5329 5327 5323 5320 5318 5316 5313 5308 5305 5307 5311 5310 5307 5305 5303 5301 5298 5296 5294 5291 5289 5286 5284 5282 5279 5276 5273 5271 5270 5268 5267 5268 5269 5269 5266 5263 5261 5260 5260 5259 5258 5258 5257 5256 5256 5255 5253 5251 5251 5251 5251 5251 5249 5249 5249 5249 5248
5327 5325 5323 5321 5320 5317 5315 5313 5310 5306 5304 5301 5299 5294 5289 5289 5294 5295 5293 5290 5288 5286 5284 5282 5280 5278 5276 5273 5271 5269 5267 5263 5261 5260 5259 5258 5258 5260 5261 5259 5255 5252 5251 5250 5249 5249 5248 5247 5247 5246 5246 5246 5243 5241 5241 5241 5240 5240 5239 5239 5239 5238 5238
5313 5312 5310 5308 5306 5304 5300 5298 5296 5292 5289 5286 5284 5280 5274 5272 5276 5279 5278 5276 5274 5271 5270 5269 5267 5265 5264 5261 5258 5256 5254 5252 5249 5248 5248 5248 5250 5252 5252 5249 5246 5244 5243 5241 5240 5239 5238 5237 5237 5236 5236 5235 5233 5232 5231 5230 5230 5229 5228 5228 5228 5228 5227
5299 5297 5296 5294 5292 5290 5286 5283 5281 5278 5274 5271 5269 5266 5260 5255 5257 5262 5263 5262 5260 5259 5257 5257 5256 5254 5252 5250 5247 5245 5243 5241 5238 5236 5237 5238 5239 5240 5240 5238 5237 5236 5234 5232 5231 5230 5229 5227 5226 5226 5226 5225 5223 5222 5221 5220 5219 5218 5217 5217 5217 5217 5216
5284 5282 5281 5279 5278 5277 5273 5268 5265 5263 5260 5257 5254 5252 5247 5241 5240 5244 5247 5248 5248 5247 5246 5245 5245 5243 5241 5239 5237 5235 5232 5230 5228 5226 5226 5227 5227 5228 5228 5227 5227 5226 5225 5223 5222 5220 5220 5218 5216 5215 5215 5214 5213 5212 5210 5209 5208 5207 5207 5207 5206 5205 5206
5269 5267 5265 5264 5263 5262 5259 5255 5251 5249 5246 5244 5241 5238 5235 5229 5225 5228 5232 5234 5235 5235 5234 5234 5233 5232 5230 5228 5227 5225 5222 5221 5219 5217 5216 5216 5215 5215 5215 5215 5214 5214 5214 5213 5212 5210 5210 5209 5206 5204 5203 5204 5203 5202 5200 5197 5197 5197 5197 5196 5195 5194 5194
5254 5251 5250 5249 5248 5246 5245 5242 5239 5235 5232 5231 5229 5226 5224 5219 5213 5213 5218 5221 5221 5221 5221 5220 5220 5220 5219 5218 5217 5215 5213 5212 5210 5208 5205 5204 5203 5203 5203 5202 5202 5202 5202 5202 5202 5201 5200 5199 5197 5193 5192 5193 5193 5192 5189 5187 5186 5187 5186 5185 5185 5184 5183
5238 5235 5234 5234 5234 5231 5229 5229 5228 5224 5219 5217 5217 5215 5213 5209 5203 5200 5204 5208 5208 5207 5207 5206 5206 5206 5206 5205 5205 5203 5202 5201 5200 5198 5195 5192 5191 5192 5191 5190 5189 5189 5189 5190 5190 5189 5189 5188 5187 5184 5183 5182 5182 5181 5179 5178 5177 5176 5175 5175 5174 5174 5173
5222 5221 5219 5218 5218 5217 5215 5215 5215 5213 5207 5204 5203 5202 5201 5199 5194 5190 5190 5193 5196 5195 5194 5193 5192 5192 5192 5192 5191 5190 5189 5188 5187 5186 5184 5181 5180 5180 5178 5178 5178 5177 5177 5178 5177 5177 5177 5176 5176 5175 5174 5172 5170 5169 5169 5168 5167 5166 5165 5164 5164 5165 5164
5207 5207 5205 5203 5203 5203 5201 5201 5202 5201 5197 5192 5190 5189 5188 5187 5185 5181 5178 5178 5180 5181 5181 5181 5180 5180 5180 5179 5178 5177 5175 5174 5174 5174 5173 5171 5169 5168 5166 5165 5166 5167 5166 5166 5165 5164 5164 5164 5164 5164 5162 5160 5159 5158 5158 5158 5157 5156 5155 5155 5155 5156 5155
5193 5192 5191 5190 5189 5188 5187 5186 5187 5187 5185 5180 5176 5175 5175 5174 5173 5170 5167 5165 5164 5165 5166 5168 5168 5168 5167 5166 5166 5165 5163 5161 5161 5161 5161 5160 5159 5158 5155 5153 5154 5155 5155 5154 5154 5153 5153 5153 5153 5152 5151 5149 5148 5147 5147 5147 5147 5147 5146 5145 5146 5146 5146
5178 5177 5175 5174 5175 5174 5173 5172 5171 5171 5171 5168 5163 5160 5161 5161 5159 5157 5155 5153 5152 5151 5152 5154 5155 5154 5153 5152 5152 5152 5151 5150 5148 5147 5148 5148 5148 5147 5145 5142 5142 5144 5144 5143 5142 5142 5142 5142 5141 5141 5140 5139 5138 5137 5137 5137 5138 5138 5137 5137 5137 5137 5136
5163 5162 5159 5158 5158 5158 5157 5156 5155 5154 5154 5154 5151 5147 5146 5146 5145 5144 5142 5141 5139 5139 5140 5141 5141 5140 5139 5138 5138 5138 5138 5137 5135 5134 5135 5136 5136 5136 5135 5132 5131 5132 5133 5132 5131 5131 5131 5131 5131 5131 5130 5129 5129 5128 5128 5128 5129 5129 5129 5128 5128 5128 5127
5146 5145 5144 5142 5142 5142 5141 5140 5140 5138 5137 5137 5137 5135 5132 5131 5130 5129 5129 5127 5127 5127 5128 5129 5128 5127 5126 5125 5125 5125 5125 5125 5124 5123 5123 5124 5125 5125 5124 5122 5121 5121 5121 5122 5121 5121 5121 5121 5121 5121 5121 5120 5120 5120 5120 5120 5121 5120 5120 5120 5120 5120 5119
5131 5130 5128 5127 5126 5126 5125 5124 5124 5123 5121 5121 5121 5121 5120 5117 5116 5115 5115 5114 5115 5115 5116 5115 5115 5114 5113 5112 5113 5113 5113 5113 5112 5112 5112 5113 5114 5114 5113 5112 5111 5111 5111 5112 5112 5111 5111 5111 5111 5111 5112 5112 5112 5112 5112 5113 5113 5112 5112 5112 5112 5112 5112
5118 5116 5115 5114 5112 5112 5111 5110 5110 5110 5108 5107 5106 5106 5106 5105 5103 5102 5102 5102 5104 5104 5103 5102 5102 5101 5101 5100 5101 5101 5102 5102 5102 5102 5102 5103 5104 5104 5103 5102 5101 5102 5102 5103 5103 5103 5102 5102 5103 5103 5104 5104 5105 5105 5105 5105 5105 5105 5105 5105 5105 5105 5105
5105 5104 5103 5102 5100 5099 5097 5097 5097 5097 5096 5095 5094 5092 5092 5091 5091 5090 5090 5090 5092 5093 5091 5089 5089 5090 5089 5089 5089 5090 5091 5091 5091 5091 5092 5092 5093 5094 5094 5093 5092 5092 5093 5094 5094 5095 5095 5094 5095 5095 5096 5096 5097 5098 5098 5098 5098 5098 5098 5099 5099 5099 5099
5093 5091 5090 5090 5089 5087 5085 5085 5085 5084 5084 5083 5083 5081 5080 5079 5079 5080 5079 5079 5080 5081 5081 5080 5079 5078 5078 5079 5079 5079 5080 5081 5081 5081 5082 5082 5083 5084 5085 5085 5084 5083 5084 5085 5086 5087 5087 5087 5087 5088 5088 5089 5090 5091 5091 5091 5091 5092 5093 5093 5093 5093 5093
5084 5081 5079 5078 5077 5076 5075 5074 5073 5073 5072 5071 5071 5070 5069 5069 5069 5069 5069 5068 5068 5069 5070 5071 5070 5069 5069 5069 5069 5070 5070 5070 5071 5072 5072 5073 5073 5074 5076 5077 5077 5075 5075 5076 5078 5079 5080 5080 5081 5081 5082 5083 5084 5085 5085 5085 5085 5086 5087 5088 5088 5088 5088